Showing default

VEERY-0G, 66675

Orbit data source: Space-Track

VEERY-0G, 66675 is a payload satellite owned by Care Weather (US) in SSO that was launched on Fri, 28 Nov 2025 UTC via an FALCON 9 launch vehicle from the Air Force Western Test Range (AFWTR). Payload-class satellites include a variety of spacecraft equipped with specific instruments for various scientific and technological missions. These include communications satellites like Starlink; space stations such as the ISS; scientific satellites like the Hubble; Earth observation satellites from companies like Planet Labs, Umbra, and HawkEye 360; GPS; miniature CubeSats for education and research; and military/defense satellites.

Loading next visibility...
Identifier
66675, 2025-276K
Orbit
SSO
Country
Flag of USUS
Related business
Manufacturer
Care Weather
Mission
Operational Civil Technology
Bus & Motor
CUBESAT 1U, Unknown motor
Mass
1 kg wet, 1 kg dry
Launch date (UTC)
2025-11-28 (6 months ago)
Launch vehicle
FALCON 9
Launch site
Air Force Western Test Range (AFWTR)
Object type
Payload
Rocket body
Debris
Shape & HBR
Box + 2 Ant, 0.1 m
Radar Cross Section
0.006 m²

Expand to show TLE details & history
Last TLE update: 13 hours ago

TLE from 13 hours ago
0 VEERY-0G
1 66675U 25276K   26144.67873259  .00008384  00000-0  38783-3 0  9991
2 66675  97.4179 218.6072 0007459  91.5805 268.6285 15.20367486 26858
Epoch: 2026-05-24T16:17Z
TLE epoch observation values (Epoch: 2026-05-24T16:17:22.495Z)
Latitude
-0.00002°
Longitude
91.98605°
Altitude
507.949 km
Speed
7.61 km/s
True Right ascension
14h 34m 25s
True Declination
0° 00' 00"
Sunlit
Object was in full shadow at epoch
Visualization orbit readout
Latitude
Unknown
Longitude
Unknown
Altitude
Unknown
Speed
Unknown
Apparent Right ascension
Unknown
Apparent Declination
Unknown
Sunlit
N/A
Visualization observer readout
Local Sidereal Time
14:49:42
Azimuth
Unknown
Elevation
Unknown
Doppler factor
Unknown
Orbital elements
Apogee altitude
506.829 km
Perigee altitude
496.565 km
Semi-major axis
6,879.834 km
Eccentricity
0.00075
Inclination
97.4179°
RAAN
218.6072°
Arg. of periapsis
91.5805°
True anomaly
268.54305°
Mean anomaly
268.6285°
Eccentric anomaly
268.58578°
Mean motion
3.80344 °/min
Orbital period
94.65 mins
BSTAR
0.00038783
Loading maneuver chart data...
Computing Atmospheric mass density...
Loading historical data...
Loading historical data...
Loading historical data...
Loading historical data...
Loading historical data...
Loading historical data...
Loading historical data...

Documentation

Showing up to 5 results
|